User: anonymous   Login
Location: ActonStarParty
(42.4766°N, 71.4538°W)
Time: 18:13:02
(UTC-05:00)
Language:

Cosmos 1300 - Orbit

View from above orbital plane
View from above orbital plane
View from above satellite
View from above satellite

Ground track
Ground track

The orbit data is extracted from the following two-line orbital elements,

1 12785U 81082A   14328.88111418  .00007501  00000-0  42975-3 0  8725
2 12785 082.5072 275.8915 0001436 128.4902 283.7131 15.12465195810201
Epoch (UTC): 24 November 2014 21:08:48
Eccentricity: 0.0001436
inclination: 82.5072°
perigee height: 527 km
apogee height: 529 km
right ascension of ascending node: 275.8915°
argument of perigee: 128.4902°
revolutions per day: 15.12465195
mean anomaly at epoch: 283.7131°
orbit number at epoch: 81020

The dashed part of the orbit path shows where the satellite is in the earth's shadow,  

DLR